| time (UTC) | temp C | wind direction | speed KPH | gust KPH | rain 1hr cm | rain 24hr cm | rain mn cm | humidity % | barometer mb |
| 20260506034005 | 7 | 358 | 8.0 | 22.5 | 0.00 | 0.00 | 0.00 | 83 | 1012.0 |
| 20260506033503 | 7 | 3 | 8.0 | 19.3 | 0.00 | 0.00 | 0.00 | 83 | 1012.0 |
| 20260506033214 | 7 | 4 | 9.7 | 19.3 | 0.00 | 0.00 | 0.00 | 83 | 1012.0 |
| 20260506032504 | 7 | 357 | 9.7 | 22.5 | 0.00 | 0.00 | 0.00 | 83 | 1012.1 |
| 20260506032003 | 7 | 354 | 8.0 | 14.5 | 0.00 | 0.00 | 0.00 | 83 | 1012.1 |
| 20260506031503 | 7 | 359 | 8.0 | 20.9 | 0.00 | 0.00 | 0.00 | 82 | 1012.1 |
| 20260506031003 | 7 | 2 | 8.0 | 20.9 | 0.00 | 0.00 | 0.00 | 82 | 1012.2 |
| 20260506030503 | 7 | 3 | 8.0 | 19.3 | 0.00 | 0.00 | 0.00 | 82 | 1012.2 |
| 20260506030003 | 7 | 2 | 6.4 | 19.3 | 0.00 | 0.00 | 0.00 | 82 | 1012.2 |
| 20260506025503 | 7 | 1 | 6.4 | 19.3 | 0.00 | 0.00 | 0.00 | 82 | 1012.3 |
| 20260506025003 | 7 | 3 | 8.0 | 19.3 | 0.00 | 0.00 | 0.00 | 82 | 1012.3 |
| 20260506024503 | 7 | 4 | 6.4 | 19.3 | 0.00 | 0.00 | 0.00 | 82 | 1012.3 |
| 20260506024003 | 7 | 2 | 8.0 | 20.9 | 0.00 | 0.00 | 0.00 | 82 | 1012.1 |
| 20260506023717 | 7 | 2 | 9.7 | 20.9 | 0.00 | 0.00 | 0.00 | 81 | 1012.1 |
| 20260506023004 | 7 | 1 | 6.4 | 20.9 | 0.00 | 0.00 | 0.00 | 81 | 1012.1 |
| 20260506022504 | 7 | 2 | 6.4 | 14.5 | 0.00 | 0.00 | 0.00 | 81 | 1012.3 |
| 20260506022003 | 7 | 7 | 6.4 | 19.3 | 0.00 | 0.00 | 0.00 | 81 | 1012.3 |
| 20260506021503 | 7 | 3 | 9.7 | 24.1 | 0.00 | 0.00 | 0.00 | 81 | 1012.3 |
| 20260506021003 | 7 | 359 | 9.7 | 24.1 | 0.00 | 0.00 | 0.00 | 81 | 1012.4 |
| 20260506020503 | 7 | 6 | 6.4 | 19.3 | 0.00 | 0.00 | 0.00 | 81 | 1012.4 |
| 20260506020004 | 7 | 9 | 6.4 | 19.3 | 0.00 | 0.00 | 0.00 | 81 | 1012.4 |
| 20260506015503 | 7 | 5 | 8.0 | 19.3 | 0.00 | 0.00 | 0.00 | 81 | 1012.5 |
| 20260506015003 | 7 | 6 | 8.0 | 20.9 | 0.00 | 0.00 | 0.00 | 81 | 1012.5 |
| 20260506014503 | 7 | 2 | 8.0 | 20.9 | 0.00 | 0.00 | 0.00 | 81 | 1012.5 |
| 20260506014003 | 7 | 358 | 8.0 | 19.3 | 0.00 | 0.00 | 0.00 | 81 | 1012.5 |
| 20260506013503 | 7 | 1 | 8.0 | 19.3 | 0.00 | 0.00 | 0.00 | 80 | 1012.5 |
| 20260506013003 | 7 | 3 | 8.0 | 17.7 | 0.00 | 0.00 | 0.00 | 80 | 1012.5 |
| 20260506012504 | 7 | 6 | 8.0 | 19.3 | 0.00 | 0.00 | 0.00 | 80 | 1012.6 |
| 20260506012003 | 8 | 5 | 6.4 | 19.3 | 0.00 | 0.00 | 0.00 | 80 | 1012.6 |
| 20260506011503 | 8 | 360 | 8.0 | 20.9 | 0.00 | 0.00 | 0.00 | 80 | 1012.6 |
| 20260506011004 | 8 | 1 | 11.3 | 20.9 | 0.00 | 0.00 | 0.00 | 80 | 1012.5 |
| 20260506010504 | 8 | 4 | 8.0 | 20.9 | 0.00 | 0.00 | 0.00 | 81 | 1012.5 |
| 20260506010004 | 8 | 8 | 8.0 | 20.9 | 0.00 | 0.00 | 0.00 | 81 | 1012.5 |
| 20260506005503 | 8 | 11 | 8.0 | 19.3 | 0.00 | 0.00 | 0.00 | 81 | 1012.5 |
| 20260506005214 | 8 | 5 | 8.0 | 19.3 | 0.00 | 0.00 | 0.00 | 81 | 1012.5 |
| 20260506004717 | 8 | 7 | 8.0 | 20.9 | 0.00 | 0.00 | 0.00 | 81 | 1012.5 |
| 20260506004005 | 8 | 12 | 8.0 | 20.9 | 0.00 | 0.00 | 0.00 | 81 | 1012.6 |
| 20260506003503 | 8 | 14 | 8.0 | 17.7 | 0.00 | 0.00 | 0.00 | 81 | 1012.6 |
| 20260506003003 | 8 | 12 | 9.7 | 19.3 | 0.00 | 0.00 | 0.00 | 81 | 1012.6 |
| 20260506002504 | 8 | 7 | 11.3 | 20.9 | 0.00 | 0.00 | 0.00 | 81 | 1012.6 |
| 20260506002217 | 8 | 5 | 9.7 | 20.9 | 0.00 | 0.00 | 0.00 | 81 | 1012.6 |
| 20260506001503 | 8 | 4 | 8.0 | 17.7 | 0.00 | 0.00 | 0.00 | 82 | 1012.6 |
| 20260506001003 | 8 | 360 | 8.0 | 17.7 | 0.00 | 0.00 | 0.00 | 82 | 1012.6 |
| 20260506000503 | 8 | 357 | 9.7 | 20.9 | 0.00 | 0.00 | 0.00 | 82 | 1012.6 |
| 20260506000015 | 8 | 358 | 9.7 | 20.9 | 0.00 | 0.00 | 0.00 | 82 | 1012.6 |
| 20260505235503 | 8 | 2 | 8.0 | 19.3 | 0.00 | 0.00 | 0.00 | 81 | 1012.6 |
| 20260505235003 | 8 | 8 | 8.0 | 19.3 | 0.00 | 0.00 | 0.00 | 81 | 1012.6 |
| 20260505234505 | 8 | 9 | 9.7 | 19.3 | 0.00 | 0.00 | 0.00 | 81 | 1012.6 |
| 20260505234004 | 8 | 7 | 9.7 | 22.5 | 0.00 | 0.00 | 0.00 | 80 | 1012.6 |
| 20260505233504 | 8 | 7 | 11.3 | 22.5 | 0.00 | 0.00 | 0.00 | 80 | 1012.6 |
| 20260505233217 | 8 | 8 | 11.3 | 22.5 | 0.00 | 0.00 | 0.00 | 80 | 1012.6 |
| 20260505232504 | 8 | 10 | 8.0 | 19.3 | 0.00 | 0.00 | 0.00 | 80 | 1012.7 |
| 20260505232003 | 9 | 11 | 8.0 | 19.3 | 0.00 | 0.00 | 0.00 | 80 | 1012.7 |
| 20260505231504 | 9 | 11 | 9.7 | 20.9 | 0.00 | 0.00 | 0.00 | 80 | 1012.7 |
| 20260505231006 | 9 | 4 | 9.7 | 20.9 | 0.00 | 0.00 | 0.00 | 80 | 1012.8 |
| 20260505230503 | 9 | 5 | 8.0 | 19.3 | 0.00 | 0.00 | 0.00 | 80 | 1012.8 |
| 20260505230004 | 9 | 10 | 6.4 | 17.7 | 0.00 | 0.00 | 0.00 | 81 | 1012.8 |
| 20260505225718 | 9 | 13 | 6.4 | 14.5 | 0.00 | 0.00 | 0.00 | 81 | 1012.7 |
| 20260505225003 | 9 | 11 | 6.4 | 17.7 | 0.00 | 0.00 | 0.00 | 81 | 1012.7 |
| 20260505224503 | 9 | 8 | 8.0 | 19.3 | 0.00 | 0.00 | 0.00 | 81 | 1012.7 |
| 20260505224003 | 9 | 7 | 9.7 | 22.5 | 0.00 | 0.00 | 0.00 | 81 | 1012.7 |
| 20260505223503 | 10 | 5 | 9.7 | 22.5 | 0.00 | 0.00 | 0.00 | 81 | 1012.7 |
| 20260505223004 | 10 | 7 | 9.7 | 22.5 | 0.00 | 0.00 | 0.00 | 81 | 1012.7 |
| 20260505222503 | 10 | 10 | 9.7 | 24.1 | 0.00 | 0.00 | 0.00 | 81 | 1012.7 |
| 20260505222004 | 10 | 13 | 11.3 | 29.0 | 0.00 | 0.00 | 0.00 | 81 | 1012.7 |
| 20260505221504 | 10 | 13 | 11.3 | 29.0 | 0.00 | 0.00 | 0.00 | 80 | 1012.7 |
| 20260505221004 | 10 | 11 | 11.3 | 24.1 | 0.00 | 0.00 | 0.00 | 80 | 1012.7 |
| 20260505220504 | 10 | 11 | 9.7 | 24.1 | 0.00 | 0.00 | 0.00 | 80 | 1012.7 |
| 20260505220003 | 10 | 16 | 8.0 | 22.5 | 0.00 | 0.00 | 0.00 | 80 | 1012.7 |
| 20260505215503 | 10 | 20 | 8.0 | 22.5 | 0.00 | 0.00 | 0.00 | 80 | 1012.6 |
| 20260505215003 | 10 | 25 | 6.4 | 14.5 | 0.00 | 0.00 | 0.00 | 79 | 1012.6 |
| 20260505214504 | 10 | 21 | 8.0 | 19.3 | 0.00 | 0.00 | 0.00 | 79 | 1012.6 |
| 20260505214004 | 10 | 17 | 8.0 | 19.3 | 0.00 | 0.00 | 0.00 | 79 | 1012.7 |
| 20260505213504 | 10 | 23 | 8.0 | 19.3 | 0.00 | 0.00 | 0.00 | 78 | 1012.7 |
| 20260505213003 | 10 | 36 | 6.4 | 19.3 | 0.00 | 0.00 | 0.00 | 78 | 1012.7 |
| 20260505212716 | 10 | 39 | 8.0 | 19.3 | 0.00 | 0.00 | 0.00 | 78 | 1012.7 |
| 20260505212004 | 10 | 28 | 9.7 | 19.3 | 0.00 | 0.00 | 0.00 | 78 | 1012.7 |
| 20260505211504 | 10 | 30 | 8.0 | 19.3 | 0.00 | 0.00 | 0.00 | 77 | 1012.7 |
| 20260505211003 | 10 | 33 | 8.0 | 20.9 | 0.00 | 0.00 | 0.00 | 77 | 1012.6 |
| 20260505210504 | 10 | 27 | 9.7 | 20.9 | 0.00 | 0.00 | 0.00 | 77 | 1012.6 |
| 20260505210004 | 10 | 28 | 9.7 | 20.9 | 0.00 | 0.00 | 0.00 | 77 | 1012.6 |
| 20260505205504 | 10 | 32 | 8.0 | 19.3 | 0.00 | 0.00 | 0.00 | 77 | 1012.6 |
| 20260505205004 | 10 | 31 | 8.0 | 19.3 | 0.00 | 0.00 | 0.00 | 76 | 1012.6 |
| 20260505204503 | 10 | 29 | 9.7 | 27.4 | 0.00 | 0.00 | 0.00 | 76 | 1012.6 |
| 20260505204004 | 10 | 29 | 11.3 | 27.4 | 0.00 | 0.00 | 0.00 | 75 | 1012.4 |
| 20260505203504 | 11 | 25 | 11.3 | 19.3 | 0.00 | 0.00 | 0.00 | 74 | 1012.4 |
| 20260505203003 | 11 | 20 | 9.7 | 22.5 | 0.00 | 0.00 | 0.00 | 74 | 1012.4 |
| 20260505202503 | 11 | 23 | 9.7 | 22.5 | 0.00 | 0.00 | 0.00 | 73 | 1012.3 |
| 20260505202004 | 11 | 23 | 9.7 | 20.9 | 0.00 | 0.00 | 0.00 | 73 | 1012.3 |
| 20260505201504 | 11 | 19 | 11.3 | 22.5 | 0.00 | 0.00 | 0.00 | 72 | 1012.3 |
| 20260505201003 | 11 | 20 | 12.9 | 24.1 | 0.00 | 0.00 | 0.00 | 72 | 1012.1 |
| 20260505200503 | 11 | 18 | 11.3 | 24.1 | 0.00 | 0.00 | 0.00 | 71 | 1012.1 |
| 20260505200005 | 11 | 15 | 11.3 | 24.1 | 0.00 | 0.00 | 0.00 | 71 | 1012.1 |
| 20260505195714 | 11 | 18 | 11.3 | 24.1 | 0.00 | 0.00 | 0.00 | 71 | 1012.0 |
| 20260505195004 | 11 | 20 | 11.3 | 24.1 | 0.00 | 0.00 | 0.00 | 70 | 1012.0 |
| 20260505194504 | 11 | 18 | 11.3 | 30.6 | 0.00 | 0.00 | 0.00 | 70 | 1012.0 |
| 20260505194003 | 12 | 20 | 11.3 | 30.6 | 0.00 | 0.00 | 0.00 | 70 | 1011.6 |
| 20260505193503 | 12 | 28 | 11.3 | 24.1 | 0.00 | 0.00 | 0.00 | 69 | 1011.6 |
| 20260505193004 | 12 | 30 | 8.0 | 20.9 | 0.00 | 0.00 | 0.00 | 69 | 1011.6 |
| 20260505192504 | 12 | 27 | 8.0 | 19.3 | 0.00 | 0.00 | 0.00 | 68 | 1011.4 |
| 20260505192004 | 12 | 15 | 9.7 | 20.9 | 0.00 | 0.00 | 0.00 | 68 | 1011.4 |
| 20260505191504 | 12 | 12 | 9.7 | 22.5 | 0.00 | 0.00 | 0.00 | 67 | 1011.4 |
| 20260505191003 | 12 | 28 | 9.7 | 22.5 | 0.00 | 0.00 | 0.00 | 67 | 1011.3 |
| 20260505190503 | 12 | 33 | 9.7 | 22.5 | 0.00 | 0.00 | 0.00 | 67 | 1011.3 |
| 20260505190003 | 12 | 29 | 9.7 | 20.9 | 0.00 | 0.00 | 0.00 | 67 | 1011.3 |
| 20260505185504 | 12 | 34 | 11.3 | 22.5 | 0.00 | 0.00 | 0.00 | 67 | 1011.2 |
| 20260505185213 | 12 | 38 | 11.3 | 22.5 | 0.00 | 0.00 | 0.00 | 67 | 1011.2 |
| 20260505184503 | 13 | 34 | 8.0 | 19.3 | 0.00 | 0.00 | 0.00 | 68 | 1011.2 |
| 20260505184003 | 13 | 22 | 8.0 | 20.9 | 0.00 | 0.00 | 0.00 | 68 | 1011.0 |
| 20260505183717 | 13 | 15 | 8.0 | 20.9 | 0.00 | 0.00 | 0.00 | 68 | 1011.0 |
| 20260505183003 | 13 | 12 | 11.3 | 22.5 | 0.00 | 0.00 | 0.00 | 68 | 1011.0 |
| 20260505182504 | 13 | 15 | 11.3 | 22.5 | 0.00 | 0.00 | 0.00 | 68 | 1010.9 |
| 20260505182003 | 13 | 24 | 9.7 | 17.7 | 0.00 | 0.00 | 0.00 | 67 | 1010.9 |
| 20260505181504 | 13 | 17 | 9.7 | 20.9 | 0.00 | 0.00 | 0.00 | 67 | 1010.9 |
| 20260505181003 | 13 | 10 | 11.3 | 22.5 | 0.00 | 0.00 | 0.00 | 67 | 1011.0 |
| 20260505180504 | 13 | 10 | 12.9 | 24.1 | 0.00 | 0.00 | 0.00 | 67 | 1011.0 |
| 20260505180004 | 13 | 12 | 12.9 | 24.1 | 0.00 | 0.00 | 0.00 | 67 | 1011.0 |
| 20260505175504 | 13 | 12 | 11.3 | 22.5 | 0.00 | 0.00 | 0.00 | 68 | 1011.0 |
| 20260505175004 | 13 | 11 | 11.3 | 22.5 | 0.00 | 0.00 | 0.00 | 67 | 1011.0 |
| 20260505174504 | 13 | 13 | 11.3 | 27.4 | 0.00 | 0.00 | 0.00 | 67 | 1011.0 |
| 20260505174004 | 14 | 16 | 8.0 | 27.4 | 0.00 | 0.00 | 0.00 | 68 | 1010.9 |
| 20260505173712 | 14 | 15 | 8.0 | 20.9 | 0.00 | 0.00 | 0.00 | 68 | 1010.9 |
| 20260505173216 | 14 | 31 | 9.7 | 20.9 | 0.00 | 0.00 | 0.00 | 67 | 1010.9 |
| 20260505172713 | 14 | 31 | 11.3 | 24.1 | 0.00 | 0.00 | 0.00 | 67 | 1010.8 |
| 20260505172004 | 14 | 17 | 9.7 | 24.1 | 0.00 | 0.00 | 0.00 | 66 | 1010.8 |
| 20260505171505 | 14 | 25 | 9.7 | 20.9 | 0.00 | 0.00 | 0.00 | 66 | 1010.8 |
| 20260505171003 | 14 | 26 | 9.7 | 20.9 | 0.00 | 0.00 | 0.00 | 66 | 1010.8 |
| 20260505170715 | 14 | 25 | 8.0 | 20.9 | 0.00 | 0.00 | 0.00 | 66 | 1010.8 |
| 20260505170005 | 14 | 21 | 6.4 | 14.5 | 0.00 | 0.00 | 0.00 | 66 | 1010.8 |
| 20260505165716 | 14 | 18 | 6.4 | 16.1 | 0.00 | 0.00 | 0.00 | 66 | 1010.8 |
| 20260505165003 | 15 | 22 | 9.7 | 20.9 | 0.00 | 0.00 | 0.00 | 65 | 1010.8 |
| 20260505164503 | 15 | 12 | 11.3 | 19.3 | 0.00 | 0.00 | 0.00 | 65 | 1010.8 |
| 20260505164003 | 15 | 3 | 11.3 | 19.3 | 0.00 | 0.00 | 0.00 | 64 | 1010.7 |
| 20260505163503 | 15 | 2 | 9.7 | 17.7 | 0.00 | 0.00 | 0.00 | 62 | 1010.7 |
| 20260505163003 | 15 | 357 | 9.7 | 17.7 | 0.00 | 0.00 | 0.00 | 61 | 1010.7 |
| 20260505162503 | 15 | 1 | 8.0 | 17.7 | 0.00 | 0.00 | 0.00 | 61 | 1010.6 |
| 20260505162003 | 15 | 3 | 8.0 | 17.7 | 0.00 | 0.00 | 0.00 | 61 | 1010.6 |
| 20260505161505 | 15 | 1 | 8.0 | 17.7 | 0.00 | 0.00 | 0.00 | 61 | 1010.6 |
| 20260505161003 | 15 | 2 | 8.0 | 17.7 | 0.00 | 0.00 | 0.00 | 60 | 1010.7 |
| 20260505160504 | 15 | 1 | 8.0 | 17.7 | 0.00 | 0.00 | 0.00 | 60 | 1010.7 |
| 20260505153217 | 15 | 360 | 6.4 | 11.3 | 0.00 | 0.00 | 0.00 | 60 | 1010.8 |
| 20260505152503 | 15 | 7 | 4.8 | 9.7 | 0.00 | 0.00 | 0.00 | 60 | 1010.9 |
| 20260505152003 | 15 | 4 | 3.2 | 8.0 | 0.00 | 0.00 | 0.00 | 59 | 1010.9 |
| 20260505151503 | 15 | 358 | 3.2 | 8.0 | 0.00 | 0.00 | 0.00 | 60 | 1010.9 |
| 20260505151003 | 15 | 6 | 4.8 | 8.0 | 0.00 | 0.00 | 0.00 | 60 | 1011.0 |
| 20260505150717 | 15 | 9 | 3.2 | 8.0 | 0.00 | 0.00 | 0.00 | 60 | 1011.0 |
| 20260505140503 | 15 | 353 | 8.0 | 14.5 | 0.00 | 0.00 | 0.00 | 59 | 1011.1 |
| 20260505125003 | 16 | 10 | 3.2 | 9.7 | 0.00 | 0.00 | 0.00 | 58 | 1011.2 |
| 20260505124504 | 16 | 23 | 4.8 | 11.3 | 0.00 | 0.00 | 0.00 | 58 | 1011.2 |
| 20260505124003 | 16 | 13 | 4.8 | 11.3 | 0.00 | 0.00 | 0.00 | 58 | 1011.3 |
| 20260505123504 | 16 | 6 | 6.4 | 17.7 | 0.00 | 0.00 | 0.00 | 59 | 1011.3 |
| 20260505123003 | 16 | 8 | 8.0 | 17.7 | 0.00 | 0.00 | 0.00 | 57 | 1011.3 |
| 20260505122503 | 17 | 358 | 6.4 | 19.3 | 0.00 | 0.00 | 0.00 | 57 | 1011.2 |
| 20260505122003 | 17 | 346 | 3.2 | 19.3 | 0.00 | 0.00 | 0.00 | 55 | 1011.2 |
| 20260505121504 | 16 | 75 | 1.6 | 8.0 | 0.00 | 0.00 | 0.00 | 55 | 1011.2 |
| 20260505121004 | 16 | 55 | 3.2 | 11.3 | 0.00 | 0.00 | 0.00 | 54 | 1011.3 |
| 20260505120504 | 16 | 66 | 4.8 | 11.3 | 0.00 | 0.00 | 0.00 | 56 | 1011.3 |
| 20260505120005 | 16 | 74 | 4.8 | 11.3 | 0.00 | 0.00 | 0.00 | 52 | 1011.3 |
| 20260505115504 | 16 | 58 | 4.8 | 11.3 | 0.00 | 0.00 | 0.00 | 54 | 1011.4 |
| 20260505115003 | 16 | 40 | 4.8 | 11.3 | 0.00 | 0.00 | 0.00 | 59 | 1011.4 |
| 20260505114503 | 15 | 10 | 3.2 | 9.7 | 0.00 | 0.00 | 0.00 | 60 | 1011.4 |
| 20260505114004 | 15 | 9 | 3.2 | 11.3 | 0.00 | 0.00 | 0.00 | 63 | 1011.5 |
| 20260505113716 | 15 | 347 | 3.2 | 11.3 | 0.00 | 0.00 | 0.00 | 62 | 1011.5 |
| 20260505113003 | 15 | 338 | 8.0 | 17.7 | 0.00 | 0.00 | 0.00 | 64 | 1011.5 |
| 20260505112503 | 15 | 354 | 8.0 | 17.7 | 0.00 | 0.00 | 0.00 | 63 | 1011.7 |
| 20260505112003 | 15 | 12 | 6.4 | 14.5 | 0.00 | 0.00 | 0.00 | 63 | 1011.7 |
| 20260505111503 | 15 | 29 | 6.4 | 14.5 | 0.00 | 0.00 | 0.00 | 64 | 1011.7 |
| 20260505111003 | 15 | 26 | 4.8 | 11.3 | 0.00 | 0.00 | 0.00 | 64 | 1011.9 |
| 20260505110714 | 15 | 5 | 6.4 | 11.3 | 0.00 | 0.00 | 0.00 | 64 | 1011.9 |
| 20260505102004 | 15 | 6 | 4.8 | 9.7 | 0.00 | 0.00 | 0.00 | 68 | 1012.0 |
| 20260505101505 | 15 | 352 | 4.8 | 9.7 | 0.00 | 0.00 | 0.00 | 67 | 1012.0 |
| 20260505101003 | 14 | 18 | 3.2 | 9.7 | 0.00 | 0.00 | 0.00 | 71 | 1012.1 |
| 20260505100504 | 14 | 18 | 3.2 | 9.7 | 0.00 | 0.00 | 0.00 | 72 | 1012.1 |
| 20260505100004 | 13 | 4 | 4.8 | 9.7 | 0.00 | 0.00 | 0.00 | 74 | 1012.1 |
| 20260505095504 | 13 | 360 | 4.8 | 11.3 | 0.00 | 0.00 | 0.00 | 74 | 1012.2 |
| 20260505095003 | 13 | 10 | 4.8 | 11.3 | 0.00 | 0.00 | 0.00 | 74 | 1012.2 |
| 20260505094503 | 13 | 10 | 4.8 | 9.7 | 0.00 | 0.00 | 0.00 | 75 | 1012.2 |
| 20260505094003 | 13 | 3 | 4.8 | 14.5 | 0.00 | 0.00 | 0.00 | 76 | 1012.4 |
| 20260505093503 | 13 | 3 | 4.8 | 14.5 | 0.00 | 0.00 | 0.00 | 77 | 1012.4 |
| 20260505093004 | 12 | 1 | 4.8 | 11.3 | 0.00 | 0.00 | 0.00 | 78 | 1012.4 |
| 20260505092504 | 12 | 356 | 4.8 | 11.3 | 0.00 | 0.00 | 0.00 | 78 | 1012.4 |
| 20260505092216 | 12 | 350 | 6.4 | 14.5 | 0.00 | 0.00 | 0.00 | 80 | 1012.4 |
| 20260505091504 | 12 | 346 | 6.4 | 14.5 | 0.00 | 0.00 | 0.00 | 80 | 1012.4 |
| 20260505091217 | 12 | 347 | 6.4 | 14.5 | 0.00 | 0.00 | 0.00 | 80 | 1012.4 |
| 20260505090504 | 12 | 360 | 6.4 | 17.7 | 0.00 | 0.00 | 0.00 | 80 | 1012.4 |
| 20260505090005 | 12 | 8 | 4.8 | 17.7 | 0.00 | 0.00 | 0.00 | 79 | 1012.4 |
| 20260505085504 | 12 | 11 | 3.2 | 9.7 | 0.00 | 0.00 | 0.00 | 80 | 1012.4 |
| 20260505085003 | 12 | 4 | 3.2 | 9.7 | 0.00 | 0.00 | 0.00 | 81 | 1012.4 |
| 20260505084503 | 12 | 349 | 4.8 | 9.7 | 0.00 | 0.00 | 0.00 | 81 | 1012.4 |
| 20260505084003 | 12 | 340 | 4.8 | 9.7 | 0.00 | 0.00 | 0.00 | 81 | 1012.3 |
| 20260505083503 | 12 | 342 | 4.8 | 9.7 | 0.00 | 0.00 | 0.00 | 82 | 1012.3 |
| 20260505083003 | 12 | 350 | 4.8 | 9.7 | 0.00 | 0.00 | 0.00 | 82 | 1012.3 |
| 20260505082503 | 12 | 360 | 4.8 | 14.5 | 0.00 | 0.00 | 0.00 | 83 | 1012.5 |
| 20260505082004 | 12 | 355 | 6.4 | 14.5 | 0.00 | 0.00 | 0.00 | 83 | 1012.5 |
| 20260505081715 | 12 | 353 | 8.0 | 14.5 | 0.00 | 0.00 | 0.00 | 83 | 1012.5 |
| 20260505081003 | 11 | 356 | 4.8 | 11.3 | 0.00 | 0.00 | 0.00 | 84 | 1012.5 |
| 20260505080503 | 11 | 346 | 4.8 | 9.7 | 0.00 | 0.00 | 0.00 | 84 | 1012.5 |
| 20260505080003 | 11 | 329 | 4.8 | 11.3 | 0.00 | 0.00 | 0.00 | 84 | 1012.5 |
| 20260505075503 | 12 | 338 | 4.8 | 11.3 | 0.00 | 0.00 | 0.00 | 84 | 1012.5 |
| 20260505075004 | 12 | 348 | 3.2 | 9.7 | 0.00 | 0.00 | 0.00 | 86 | 1012.5 |
| 20260505074503 | 12 | 340 | 3.2 | 9.7 | 0.00 | 0.00 | 0.00 | 88 | 1012.5 |
| 20260505074003 | 11 | 339 | 3.2 | 4.8 | 0.00 | 0.00 | 0.00 | 90 | 1012.5 |
| 20260505073503 | 11 | 330 | 3.2 | 8.0 | 0.00 | 0.00 | 0.00 | 91 | 1012.5 |
| 20260505073217 | 11 | 327 | 3.2 | 8.0 | 0.00 | 0.00 | 0.00 | 91 | 1012.5 |
| 20260505072504 | 11 | 333 | 3.2 | 8.0 | 0.00 | 0.00 | 0.00 | 92 | 1012.6 |
| 20260505072003 | 10 | 10 | 3.2 | 4.8 | 0.00 | 0.00 | 0.00 | 93 | 1012.6 |
| 20260505071503 | 10 | 31 | 3.2 | 4.8 | 0.00 | 0.00 | 0.00 | 93 | 1012.6 |
| 20260505071003 | 10 | 31 | 1.6 | 4.8 | 0.00 | 0.00 | 0.00 | 93 | 1012.6 |
| 20260505070504 | 10 | 31 | 1.6 | 4.8 | 0.00 | 0.00 | 0.00 | 93 | 1012.6 |
| 20260505070005 | 10 | 31 | 1.6 | 4.8 | 0.00 | 0.00 | 0.00 | 93 | 1012.6 |
| 20260505065712 | 10 | 31 | 1.6 | 4.8 | 0.00 | 0.00 | 0.00 | 93 | 1012.6 |
| 20260505065003 | 10 | 31 | 1.6 | 4.8 | 0.00 | 0.00 | 0.00 | 93 | 1012.6 |
| 20260505064503 | 10 | 31 | 1.6 | 4.8 | 0.00 | 0.00 | 0.00 | 93 | 1012.6 |
| 20260505064217 | 10 | 31 | 1.6 | 4.8 | 0.00 | 0.00 | 0.00 | 93 | 1012.8 |
| 20260505063714 | 10 | 31 | 1.6 | 4.8 | 0.00 | 0.00 | 0.00 | 93 | 1012.8 |
| 20260505063005 | 10 | 31 | 1.6 | 4.8 | 0.00 | 0.00 | 0.00 | 93 | 1012.8 |
| 20260505062503 | 10 | 31 | 1.6 | 4.8 | 0.00 | 0.00 | 0.00 | 93 | 1012.8 |
| 20260505062003 | 10 | 31 | 1.6 | 4.8 | 0.00 | 0.00 | 0.00 | 93 | 1012.8 |
| 20260505061503 | 10 | 31 | 1.6 | 4.8 | 0.00 | 0.00 | 0.00 | 93 | 1012.8 |
| 20260505061004 | 10 | 31 | 1.6 | 4.8 | 0.00 | 0.00 | 0.00 | 93 | 1012.8 |
| 20260505060503 | 10 | 31 | 1.6 | 4.8 | 0.00 | 0.00 | 0.00 | 93 | 1012.8 |
| 20260505060005 | 10 | 31 | 1.6 | 4.8 | 0.00 | 0.00 | 0.00 | 93 | 1012.8 |
| 20260505055503 | 10 | 31 | 1.6 | 4.8 | 0.00 | 0.00 | 0.00 | 93 | 1012.9 |
| 20260505055003 | 10 | 31 | 1.6 | 3.2 | 0.00 | 0.00 | 0.00 | 92 | 1012.9 |
| 20260505054503 | 10 | 31 | 1.6 | 3.2 | 0.00 | 0.00 | 0.00 | 92 | 1012.9 |
| 20260505054003 | 10 | 31 | 1.6 | 4.8 | 0.00 | 0.00 | 0.00 | 92 | 1012.8 |
| 20260505053504 | 10 | 31 | 3.2 | 4.8 | 0.00 | 0.00 | 0.00 | 92 | 1012.8 |
| 20260505053003 | 9 | 31 | 1.6 | 4.8 | 0.00 | 0.00 | 0.00 | 92 | 1012.8 |
| 20260505052504 | 9 | 0 | 0.0 | 0.0 | 0.00 | 0.00 | 0.00 | 92 | 1012.8 |
| 20260505052214 | 9 | 0 | 0.0 | 0.0 | 0.00 | 0.00 | 0.00 | 92 | 1012.8 |
| 20260505051504 | 9 | 0 | 0.0 | 0.0 | 0.00 | 0.00 | 0.00 | 92 | 1012.8 |
| 20260505051004 | 9 | 0 | 0.0 | 0.0 | 0.00 | 0.00 | 0.00 | 92 | 1012.8 |
| 20260505050503 | 9 | 31 | 0.0 | 3.2 | 0.00 | 0.00 | 0.00 | 92 | 1012.8 |
| 20260505041503 | 9 | 31 | 0.0 | 1.6 | 0.00 | 0.00 | 0.00 | 91 | 1012.7 |
| 20260505041003 | 9 | 31 | 0.0 | 1.6 | 0.00 | 0.00 | 0.00 | 91 | 1012.7 |
| 20260505040503 | 9 | 31 | 0.0 | 3.2 | 0.00 | 0.00 | 0.00 | 91 | 1012.7 |
| 20260505040005 | 9 | 31 | 1.6 | 3.2 | 0.00 | 0.00 | 0.00 | 91 | 1012.7 |
| 20260505035504 | 9 | 31 | 1.6 | 4.8 | 0.00 | 0.00 | 0.00 | 91 | 1012.6 |
| 20260505035003 | 9 | 31 | 3.2 | 4.8 | 0.00 | 0.00 | 0.00 | 91 | 1012.6 |
| 20260505034503 | 9 | 31 | 1.6 | 4.8 | 0.00 | 0.00 | 0.00 | 91 | 1012.6 |